Temperature
23 23 23 23 27 27 28 29 31 30 30 29 29 28 28 27 25 23 23 23 22 22 22 21 21 21 21 20 20 20 20 20 19 19 19 19 19 19 19 19 19 19 18 18 18 18 18 18 18
23 23 24 26 27 27 28 30 30 30 29 29 29 28 27 26 25 24 23 23 22 22 21 21 21 21 21 20 20 20 20 20 19 19 19 19 19 19 19 18 18 18 18 18 18 18 18 18 18
23 23 26 28 28 28 29 30 30 30 29 29 29 28 26 25 24 23 23 23 22 22 21 21 21 21 20 20 20 20 19 19 19 19 19 19 19 18 18 18 18 18 18 18 18 18 18 18 18
23 25 27 28 28 29 30 30 30 30 29 29 29 27 25 24 23 23 23 23 22 22 21 21 21 20 20 20 20 19 19 19 19 19 18 18 18 18 18 18 18 18 18 18 18 18 18 18 18
25 27 28 29 29 30 30 30 29 30 29 29 28 27 25 23 23 23 23 23 22 21 21 21 21 20 20 20 19 19 19 19 19 18 18 18 18 18 18 18 18 18 18 17 17 17 17 17 18
27 29 28 28 30 30 30 29 29 30 29 28 28 27 24 23 23 23 23 23 22 22 21 21 20 20 20 20 19 19 19 19 18 18 18 18 18 18 18 17 17 17 17 17 17 17 17 17 17
27 29 29 29 30 30 30 29 29 29 29 28 27 27 24 23 23 23 22 22 22 21 21 21 20 20 20 19 19 19 19 18 18 18 18 18 18 17 17 17 17 17 17 17 17 17 17 17 17
28 29 29 30 30 29 30 29 29 29 28 27 27 26 24 22 22 22 22 22 21 21 20 20 20 20 19 19 19 19 18 18 18 18 18 17 17 17 17 17 17 17 17 17 17 17 17 17 17
28 28 28 29 30 29 29 29 29 28 28 27 26 25 23 23 22 22 22 21 21 20 20 20 20 19 19 19 18 18 18 18 17 17 17 17 17 17 17 17 17 17 17 17 17 17 17 17 17
30 29 29 30 30 30 29 29 29 29 28 27 25 24 23 23 22 22 22 21 21 20 20 19 19 19 18 18 18 18 17 17 17 17 17 17 17 17 17 16 17 17 17 17 17 17 17 17 17
30 29 30 30 30 30 30 29 28 29 28 27 25 24 23 22 22 22 22 21 20 20 20 19 19 18 18 18 18 17 17 17 17 17 17 17 16 16 16 16 16 16 16 16 16 16 16 16 16
31 31 30 30 30 30 29 28 28 27 27 26 25 24 23 22 22 22 21 21 20 19 19 19 19 18 18 18 17 17 17 17 17 17 17 16 16 16 16 16 16 16 16 16 16 16 16 16 16
31 31 30 30 30 29 29 28 28 27 26 26 24 24 23 23 22 21 21 20 20 19 19 19 18 18 18 17 17 17 17 17 17 16 17 16 16 16 16 16 16 16 16 16 16 16 16 16 16
31 31 30 30 29 29 29 28 28 27 26 25 25 24 23 23 22 21 20 20 19 19 18 18 18 17 17 17 17 16 16 16 16 16 16 16 16 16 16 16 15 15 15 15 16 16 16 16 16
31 31 30 30 30 29 29 28 28 26 26 25 25 24 23 22 22 21 20 19 19 18 18 18 17 17 17 17 16 16 16 16 16 16 16 16 16 15 15 15 15 15 15 15 15 15 15 16 16
31 30 29 30 30 29 29 27 27 26 26 25 25 24 23 22 22 21 20 19 19 18 18 17 17 17 17 16 16 16 16 16 16 16 16 16 15 15 15 15 15 15 15 15 15 15 15 15 15
30 29 29 29 30 29 28 27 26 26 26 25 25 24 23 22 21 21 20 19 18 18 17 17 17 16 16 16 16 16 16 16 16 16 15 15 15 15 15 15 15 15 15 15 15 15 15 15 15
28 29 29 29 29 28 27 27 26 25 26 26 25 24 23 22 21 21 20 19 18 17 17 17 16 16 16 16 16 15 15 15 15 15 15 15 15 15 15 15 15 14 14 14 14 15 15 15 15
29 29 28 29 29 28 28 27 26 26 26 26 25 24 23 22 21 20 20 19 18 17 17 16 16 16 16 15 15 15 15 15 15 15 15 15 15 15 15 15 14 14 14 14 14 14 14 14 14
29 28 28 29 29 29 28 27 27 27 26 26 25 24 23 22 21 20 19 19 18 17 17 16 16 16 15 15 15 15 15 15 15 15 15 15 14 14 14 14 14 14 14 14 14 14 14 14 14
29 28 29 28 28 29 28 26 26 26 26 25 25 24 23 22 21 20 19 18 18 17 16 16 16 15 15 15 15 15 15 15 15 15 15 14 14 14 14 14 14 14 14 14 14 14 14 14 14
28 29 29 29 28 27 27 25 25 25 25 25 24 24 23 22 21 20 19 18 17 17 16 16 16 15 15 15 15 14 14 14 14 14 14 14 14 14 14 14 14 14 14 14 14 14 14 14 14
29 30 29 29 28 28 27 26 25 24 24 24 24 24 23 22 21 20 19 18 17 17 16 16 15 15 15 15 15 14 14 14 14 14 14 14 14 14 14 14 14 13 14 14 14 13 13 13 14
30 30 30 29 28 26 26 25 24 24 24 24 24 24 23 22 21 20 19 18 17 17 16 16 15 15 15 15 14 14 14 14 14 14 14 14 14 14 14 14 13 13 13 13 13 13 13 13 13
30 28 27 26 25 25 26 25 24 25 25 25 24 24 23 22 21 20 19 18 17 17 16 15 15 15 15 14 14 14 14 14 14 14 14 14 14 14 14 14 13 13 13 13 13 13 13 13 13
29 28 26 24 25 26 26 25 25 26 26 25 24 23 22 22 21 20 19 18 17 16 16 15 15 14 14 14 14 14 14 14 14 14 14 14 13 13 13 14 13 13 13 13 13 13 13 13 13
28 28 28 26 26 25 25 24 24 25 25 24 24 23 22 21 21 20 19 18 17 16 16 15 15 14 14 14 14 14 14 13 13 13 13 13 13 13 13 13 13 13 13 13 13 13 13 13 13
29 29 28 26 25 25 25 24 23 23 23 24 24 23 22 21 20 19 19 18 17 16 15 15 15 14 14 14 14 14 13 13 13 13 13 13 13 13 13 13 13 13 13 13 13 13 13 13 13
29 28 27 27 26 25 24 23 24 23 24 24 24 23 22 21 20 19 18 18 17 16 16 15 15 14 14 14 14 13 13 13 13 13 13 13 13 13 13 13 13 12 13 13 12 12 13 13 13
29 28 27 25 25 25 24 23 25 24 24 24 23 23 22 21 20 19 18 18 17 16 16 15 15 14 14 14 14 13 13 13 13 13 13 13 13 13 13 12 12 12 12 12 12 12 12 12 12
Wind_Speed
8 11 10 7 5 5 4 2 5 8 8 8 7 7 11 11 8 7 5 8 12 14 14 13 11 11 11 10 9 9 8 8 8 8 8 7 7 7 7 7 7 7 7 7 7 6 5 5 4
9 12 9 6 6 5 2 2 7 9 7 6 6 8 11 11 10 8 7 7 11 14 14 13 12 11 11 10 9 9 9 9 8 8 7 7 7 6 6 6 6 6 6 6 6 6 5 4 4
10 14 7 6 6 4 2 6 7 8 6 5 6 8 7 7 8 6 7 7 11 14 15 15 13 11 11 10 9 9 9 8 8 7 7 7 6 6 6 6 6 6 6 6 6 5 5 5 5
7 7 6 7 5 3 2 5 5 5 5 6 6 7 8 7 6 7 7 8 11 13 16 16 15 12 11 10 10 9 8 8 7 7 6 6 6 5 5 5 5 5 5 5 5 5 5 5 5
10 7 9 9 5 1 4 5 3 4 4 5 6 8 9 9 8 9 7 8 10 13 15 16 15 13 12 11 10 9 9 7 6 6 6 5 5 5 5 5 5 5 5 5 5 5 5 5 5
7 8 8 8 4 1 4 4 2 3 3 4 6 8 9 8 8 7 7 8 10 12 14 15 15 14 13 12 10 10 9 8 7 6 5 5 5 5 5 5 5 5 5 4 4 5 5 5 5
10 10 11 9 3 1 3 4 4 3 5 3 4 6 8 8 6 6 7 8 10 10 11 11 12 12 13 12 12 11 9 8 7 6 5 5 6 6 6 6 5 5 5 5 5 5 5 5 5
10 10 12 8 2 2 3 2 2 4 5 5 4 4 7 8 7 7 7 8 9 9 8 7 8 9 10 10 12 11 10 9 8 7 7 6 6 7 7 7 7 6 6 6 6 6 6 6 7
12 11 9 6 2 1 1 2 3 5 5 6 7 8 9 10 8 8 8 7 8 8 6 4 6 6 6 6 9 10 10 9 8 8 9 8 7 7 8 8 8 8 8 8 8 8 8 8 9
9 8 7 5 3 1 0 1 2 3 5 7 9 11 11 9 8 7 7 7 7 8 6 4 5 4 3 4 5 5 5 6 6 4 4 5 5 5 5 7 9 9 9 9 10 10 9 10 8
9 8 5 4 3 2 0 2 2 1 3 5 8 10 10 9 7 6 6 6 6 6 5 5 5 4 3 3 2 2 2 3 4 3 3 3 3 2 3 4 6 7 8 7 7 9 7 6 5
9 9 5 3 3 3 1 0 2 3 2 6 8 11 9 9 7 5 5 5 6 4 4 5 5 4 4 3 0 1 1 1 1 2 1 1 1 0 0 0 1 2 3 4 4 4 5 5 5
10 8 5 5 4 2 1 1 2 2 4 8 9 9 8 8 7 6 5 4 5 5 4 5 4 4 2 1 1 0 1 1 1 2 2 1 1 0 0 0 1 2 2 2 2 2 3 3 4
9 7 6 6 4 3 3 2 3 5 6 8 9 8 7 7 7 6 5 4 4 4 4 4 3 3 2 1 1 1 2 1 1 1 2 1 1 0 1 1 1 1 1 1 2 2 2 2 2
9 9 9 8 7 5 4 4 4 7 6 7 7 7 7 6 6 6 5 4 4 4 4 2 2 3 2 0 1 1 1 0 0 1 2 1 1 0 1 1 1 2 2 2 2 2 2 3 3
12 11 11 9 8 7 6 4 4 5 6 6 6 7 8 7 6 6 6 5 5 4 3 2 1 2 1 0 1 1 1 0 0 1 2 2 0 0 0 1 1 2 2 2 2 2 2 2 2
12 12 11 7 7 5 5 4 5 5 7 6 6 6 7 7 6 6 6 5 5 4 4 2 1 2 1 1 1 1 1 1 0 1 2 2 1 0 0 0 1 3 2 1 3 1 1 2 2
10 9 9 6 5 5 5 4 7 7 7 6 6 6 6 6 6 6 5 5 5 4 4 2 2 2 1 1 0 1 1 1 0 1 1 1 1 0 1 1 1 2 1 2 2 2 2 2 2
10 10 10 5 4 4 5 5 7 8 7 7 7 6 6 5 6 6 5 5 6 4 4 3 2 1 1 0 1 1 1 1 1 1 1 1 1 1 1 2 2 2 2 2 3 2 3 2 2
9 11 10 5 1 3 5 5 5 7 7 7 7 6 6 5 5 4 4 4 4 4 4 3 2 1 1 0 1 1 2 2 2 1 1 2 2 2 3 2 2 2 2 2 3 3 2 3 2
11 11 9 6 5 7 8 7 6 6 5 5 6 6 6 5 5 5 3 3 3 4 4 3 2 2 1 1 1 1 2 2 1 0 1 1 2 2 2 2 2 3 2 2 3 2 4 3 3
10 9 9 8 8 9 9 7 7 8 5 5 5 5 5 6 5 4 4 3 3 3 4 4 3 2 1 1 1 2 2 2 2 1 1 2 2 2 3 2 3 3 2 2 3 2 3 3 3
10 10 10 10 11 12 9 6 4 7 6 6 6 5 4 6 6 5 5 3 2 3 3 3 3 2 1 0 1 2 2 2 1 1 1 2 2 2 2 2 2 2 2 2 2 2 2 2 3
10 11 11 11 10 10 7 5 4 5 6 5 4 4 4 4 5 5 5 4 3 3 4 3 3 2 1 1 1 1 2 2 2 2 1 2 1 1 2 2 1 2 2 2 2 2 3 3 3
8 7 6 6 6 7 3 2 3 5 7 6 4 3 3 3 4 4 4 4 3 3 3 3 3 2 2 2 1 2 2 2 2 2 2 2 1 1 1 2 1 2 2 3 2 3 3 3 4
6 7 6 7 7 6 5 2 5 6 7 5 4 4 4 2 4 3 4 4 3 3 3 3 3 2 1 1 1 1 1 1 1 2 2 2 2 1 1 0 1 2 2 3 2 3 3 3 3
6 7 8 8 10 8 2 2 4 5 5 4 4 5 3 3 3 3 4 4 3 3 3 3 3 1 1 1 1 1 1 2 2 1 2 2 2 1 0 0 1 1 1 2 2 2 2 2 3
8 7 5 6 7 7 3 2 2 4 3 3 3 5 4 4 3 3 4 4 3 3 3 3 2 2 1 1 1 1 1 1 1 1 2 2 2 2 1 1 1 1 1 2 2 2 2 2 2
6 7 5 6 8 7 5 1 4 4 2 3 2 4 4 4 4 4 3 3 3 3 3 2 2 2 2 2 1 1 1 1 1 1 2 2 2 2 1 1 1 1 2 2 2 2 2 1 1
7 7 5 6 7 7 6 1 4 4 3 3 3 3 4 4 4 4 4 3 2 2 2 2 2 3 2 2 2 1 1 2 2 2 2 1 1 1 1 1 1 2 1 1 2 2 2 1 1
Wind_Direction
244 247 239 248 242 243 258 304 59 62 67 63 53 66 70 56 65 94 112 112 110 114 118 119 119 123 126 128 127 127 128 125 122 121 122 122 121 125 126 127 130 139 145 145 144 144 142 142 145
257 250 244 250 253 245 268 49 74 72 63 77 72 70 74 68 75 101 108 113 117 120 122 123 126 126 128 128 126 126 128 129 129 128 127 128 127 128 132 136 141 147 151 154 155 157 160 161 164
258 259 254 253 256 272 337 56 73 78 70 70 79 66 66 75 78 98 108 121 120 119 120 122 126 126 127 126 126 127 127 129 131 133 134 134 136 138 140 144 150 155 162 167 171 174 177 175 181
249 236 233 248 252 268 353 61 70 85 72 64 78 80 78 75 88 108 118 118 116 118 121 127 130 131 131 131 130 130 129 129 130 133 138 141 145 150 153 158 165 167 174 180 182 184 190 191 194
242 250 245 256 251 153 73 53 49 65 64 66 76 89 84 80 92 110 121 118 119 118 123 131 135 135 134 132 132 131 130 131 134 137 139 145 154 161 162 170 175 177 183 187 188 188 194 197 203
247 251 260 263 249 125 80 74 50 82 70 62 86 99 95 92 94 110 117 112 113 115 122 131 140 142 142 138 136 132 132 134 137 143 153 162 164 168 174 179 183 183 189 194 196 199 201 205 211
255 274 272 269 257 105 84 71 47 48 62 54 56 98 104 99 98 106 109 100 99 104 118 135 144 148 149 146 143 142 143 149 155 161 168 176 182 184 185 188 191 191 195 202 207 211 211 212 217
254 279 285 283 279 66 82 83 65 63 72 62 51 83 112 117 121 116 103 95 95 94 102 129 133 138 145 149 153 155 160 169 174 180 186 192 198 200 198 195 193 201 208 210 210 212 218 221 224
249 262 278 295 330 49 48 96 107 107 108 80 73 84 114 131 131 126 119 112 106 99 103 125 121 126 138 143 147 164 173 182 186 194 201 202 210 202 201 199 190 201 212 215 216 219 222 227 228
243 257 271 299 331 70 1 64 147 150 125 102 94 96 115 127 130 131 125 120 115 112 114 109 96 94 107 118 132 156 168 162 186 195 196 210 216 214 207 178 188 203 211 218 224 228 229 230 227
239 253 277 301 327 299 182 52 4 128 112 117 120 118 121 124 123 129 118 113 106 112 108 105 97 84 80 77 113 142 171 164 191 173 193 217 229 204 179 172 181 200 209 219 220 223 228 228 227
246 255 252 274 297 289 301 71 1 18 81 101 116 126 131 130 127 123 116 118 112 113 110 92 89 77 64 59 51 194 177 166 199 140 194 250 261 194 146 174 200 200 193 207 216 212 219 229 238
251 254 246 238 239 229 240 195 137 109 108 113 121 129 133 131 126 119 120 112 103 101 96 91 89 95 90 78 301 292 260 213 200 145 175 243 264 249 202 274 250 247 220 221 228 237 237 236 234
259 255 247 242 235 205 231 217 207 144 133 127 133 135 137 134 130 122 113 102 95 92 89 95 109 112 107 121 244 264 260 197 167 125 151 169 122 262 272 233 268 282 267 240 242 243 259 247 244
260 251 240 228 214 211 217 229 174 147 147 146 142 139 132 127 125 125 116 116 102 91 86 94 131 105 95 73 283 269 273 186 117 115 129 154 175 158 271 247 239 262 260 251 244 261 259 248 242
252 247 245 226 211 202 224 232 143 143 162 160 151 143 135 130 141 133 121 108 103 98 95 81 50 93 99 354 289 314 327 34 113 132 123 126 158 247 267 266 270 279 281 278 248 237 268 276 267
249 247 248 225 206 212 233 217 150 167 179 168 153 150 143 142 141 128 122 112 104 102 108 114 72 84 81 326 314 332 351 339 56 99 103 114 124 303 326 267 288 286 275 274 278 255 251 268 275
270 267 260 234 206 223 227 197 156 177 193 169 160 155 148 148 144 135 129 127 118 114 112 121 107 100 125 154 335 300 259 257 224 116 118 119 143 279 314 217 280 296 285 270 263 280 261 258 261
279 278 277 257 190 236 242 209 179 185 183 177 170 158 146 142 135 128 129 130 126 128 128 125 118 111 145 143 245 248 242 251 252 199 150 176 197 243 263 264 256 256 249 272 281 269 272 259 246
269 274 273 270 232 267 262 240 202 189 194 179 163 157 146 140 136 134 135 134 140 140 131 124 121 118 148 144 260 251 263 252 226 217 181 211 202 219 237 233 256 255 247 255 257 258 260 272 262
259 263 269 279 277 265 263 246 214 187 191 174 164 153 148 150 146 139 143 146 152 148 142 135 140 161 166 155 251 284 259 265 265 205 249 255 226 212 237 239 245 249 242 245 255 263 260 264 265
259 269 269 262 258 263 248 256 208 182 191 187 179 164 154 149 146 150 150 160 178 163 149 136 140 144 139 169 229 255 255 261 278 268 228 264 247 233 231 226 235 238 241 252 259 252 265 266 265
270 276 267 258 258 263 249 254 194 165 193 193 184 173 158 155 156 158 159 168 177 148 124 117 121 121 117 190 233 251 288 301 305 293 235 254 253 241 235 219 229 227 229 244 264 286 273 268 270
271 273 268 255 259 258 246 246 191 175 167 175 174 149 145 147 147 147 147 144 140 123 115 124 131 133 138 179 201 248 266 276 295 299 294 280 267 250 233 228 218 224 231 250 256 258 257 256 266
267 278 284 282 259 265 257 222 148 136 139 148 142 127 115 144 134 133 142 130 117 123 122 132 137 160 165 178 214 236 257 267 271 283 285 278 282 266 251 252 219 227 237 248 237 247 248 246 256
273 270 277 289 288 286 254 204 132 117 118 122 125 126 125 122 122 125 133 130 142 141 132 132 138 156 157 185 220 248 275 279 287 294 295 288 290 272 212 234 239 249 245 261 249 254 251 247 250
263 272 285 284 282 283 277 115 118 112 112 112 122 121 124 124 115 115 123 125 122 131 135 134 132 140 175 231 206 219 254 285 300 312 289 290 302 300 138 275 270 277 275 274 267 263 268 255 254
258 279 286 282 287 288 266 212 153 129 134 142 142 135 137 133 132 124 120 123 132 143 151 135 133 171 211 243 247 233 231 273 305 310 317 312 316 308 289 265 268 284 301 287 275 273 262 249 251
255 262 278 293 294 301 305 40 105 122 125 133 113 113 113 132 136 133 129 132 147 154 149 156 170 179 188 213 221 252 220 250 266 272 287 299 293 291 297 278 270 274 280 281 276 264 271 264 262
267 276 284 284 299 305 302 59 66 87 88 95 111 114 111 123 135 135 131 130 139 150 141 156 176 177 190 198 192 228 229 239 249 277 283 289 283 278 286 271 248 251 255 270 277 276 278 274 252
Height
1490 1490 1491 1493 1490 1487 1482 1470 1462 1465 1467 1471 1473 1474 1477 1482 1488 1500 1499 1498 1499 1499 1500 1502 1503 1505 1506 1507 1508 1510 1511 1512 1513 1515 1516 1517 1518 1519 1521 1522 1524 1525 1526 1528 1529 1531 1532 1533 1535
1490 1491 1494 1491 1486 1490 1480 1466 1465 1468 1470 1472 1473 1475 1479 1485 1490 1495 1497 1499 1499 1499 1500 1502 1504 1505 1506 1508 1509 1510 1511 1512 1514 1515 1516 1517 1518 1520 1521 1522 1524 1525 1526 1528 1529 1530 1532 1533 1534
1490 1491 1493 1485 1483 1483 1477 1466 1466 1468 1471 1472 1474 1479 1483 1489 1493 1495 1497 1499 1500 1500 1500 1502 1504 1505 1507 1508 1509 1510 1511 1512 1514 1515 1516 1517 1518 1519 1521 1522 1523 1525 1526 1527 1529 1530 1531 1532 1534
1490 1491 1489 1483 1481 1472 1469 1467 1467 1469 1471 1473 1475 1481 1487 1492 1494 1496 1498 1499 1500 1501 1501 1502 1504 1506 1507 1508 1509 1510 1511 1512 1513 1514 1516 1517 1518 1519 1520 1521 1523 1524 1525 1527 1528 1529 1530 1531 1533
1491 1487 1482 1480 1474 1467 1466 1468 1470 1471 1472 1475 1478 1483 1490 1493 1495 1496 1498 1500 1501 1502 1502 1503 1505 1506 1507 1508 1509 1510 1511 1512 1513 1514 1515 1516 1517 1518 1519 1521 1522 1523 1524 1525 1527 1528 1529 1530 1532
1488 1481 1483 1482 1471 1465 1466 1468 1471 1471 1474 1477 1479 1484 1491 1495 1496 1497 1499 1500 1502 1502 1503 1504 1505 1506 1507 1508 1509 1510 1511 1512 1513 1514 1515 1516 1517 1518 1519 1520 1521 1522 1523 1524 1525 1527 1528 1529 1530
1487 1480 1478 1474 1471 1468 1467 1469 1472 1473 1476 1478 1481 1484 1492 1495 1496 1498 1499 1501 1502 1503 1504 1504 1505 1507 1508 1508 1509 1510 1511 1512 1512 1513 1514 1515 1516 1517 1518 1519 1520 1521 1522 1523 1524 1525 1526 1527 1528
1483 1479 1476 1471 1469 1471 1469 1471 1474 1475 1478 1481 1483 1485 1491 1495 1496 1498 1500 1501 1502 1503 1504 1505 1507 1508 1508 1508 1509 1510 1511 1511 1512 1513 1514 1514 1515 1516 1517 1517 1518 1519 1520 1521 1522 1523 1525 1526 1527
1481 1481 1480 1472 1469 1470 1468 1471 1474 1477 1480 1482 1485 1488 1491 1494 1496 1498 1500 1501 1503 1504 1505 1506 1507 1508 1509 1509 1510 1510 1511 1511 1512 1513 1513 1514 1515 1516 1516 1517 1517 1518 1519 1520 1521 1522 1523 1524 1525
1475 1478 1475 1467 1466 1467 1469 1471 1473 1475 1478 1482 1487 1490 1492 1494 1496 1498 1500 1502 1503 1504 1505 1506 1506 1507 1509 1509 1510 1510 1511 1511 1511 1512 1513 1513 1514 1515 1516 1516 1516 1516 1517 1518 1519 1520 1521 1522 1523
1470 1471 1467 1466 1466 1468 1469 1471 1473 1474 1478 1482 1486 1489 1492 1495 1496 1498 1500 1501 1503 1504 1505 1506 1506 1507 1508 1508 1509 1509 1510 1511 1511 1511 1512 1512 1513 1514 1514 1514 1514 1515 1515 1516 1517 1518 1519 1520 1521
1467 1466 1465 1467 1467 1468 1469 1472 1476 1477 1480 1483 1486 1489 1492 1494 1497 1498 1500 1501 1503 1504 1505 1506 1506 1506 1507 1507 1508 1508 1509 1509 1510 1510 1511 1511 1512 1512 1513 1513 1513 1514 1514 1515 1515 1516 1517 1518 1519
1465 1463 1464 1466 1467 1468 1469 1471 1475 1478 1481 1484 1487 1490 1492 1494 1496 1498 1500 1501 1502 1503 1504 1504 1505 1505 1505 1506 1506 1507 1508 1508 1508 1509 1509 1509 1510 1510 1511 1511 1511 1512 1513 1513 1514 1515 1516 1517 1517
1462 1462 1463 1464 1466 1467 1469 1471 1474 1478 1480 1483 1486 1489 1491 1494 1496 1498 1499 1500 1501 1502 1503 1503 1504 1504 1504 1504 1505 1506 1507 1507 1507 1507 1507 1507 1508 1509 1509 1509 1509 1510 1511 1512 1512 1513 1514 1514 1515
1461 1462 1463 1462 1464 1466 1468 1471 1473 1477 1480 1482 1485 1488 1490 1493 1495 1498 1499 1500 1501 1502 1502 1502 1503 1502 1502 1503 1504 1504 1505 1506 1506 1506 1506 1506 1506 1506 1507 1507 1508 1508 1509 1510 1510 1511 1512 1512 1513
1460 1463 1467 1461 1461 1463 1469 1477 1473 1476 1480 1482 1484 1487 1490 1493 1495 1497 1499 1500 1501 1500 1500 1501 1502 1501 1501 1502 1502 1503 1504 1504 1504 1504 1504 1504 1504 1505 1505 1505 1506 1507 1507 1508 1508 1508 1509 1510 1510
1462 1467 1465 1461 1458 1460 1466 1473 1473 1476 1479 1481 1483 1486 1489 1492 1495 1497 1498 1499 1499 1499 1499 1500 1500 1500 1500 1501 1500 1501 1502 1502 1503 1503 1502 1502 1502 1503 1503 1503 1504 1505 1505 1505 1506 1506 1507 1507 1507
1468 1465 1463 1461 1459 1460 1465 1468 1470 1474 1477 1478 1482 1485 1488 1491 1493 1495 1497 1498 1498 1498 1498 1498 1499 1498 1499 1499 1499 1500 1500 1501 1501 1501 1501 1501 1501 1500 1501 1501 1502 1502 1503 1503 1503 1504 1504 1505 1505
1459 1461 1463 1458 1455 1460 1463 1465 1468 1470 1473 1475 1479 1482 1486 1489 1491 1494 1496 1497 1497 1497 1497 1497 1498 1497 1497 1498 1498 1498 1499 1499 1499 1499 1499 1499 1498 1498 1499 1499 1499 1500 1500 1500 1501 1502 1502 1503 1503
1457 1463 1461 1456 1453 1458 1462 1464 1463 1467 1470 1473 1476 1480 1484 1487 1490 1492 1494 1495 1495 1496 1495 1496 1496 1496 1496 1496 1497 1497 1497 1498 1498 1498 1497 1496 1496 1496 1497 1497 1497 1497 1498 1498 1499 1500 1500 1500 1501
1457 1458 1457 1458 1455 1455 1462 1467 1466 1465 1468 1472 1475 1479 1481 1484 1487 1490 1491 1493 1494 1494 1493 1493 1494 1494 1494 1494 1495 1495 1495 1496 1496 1496 1495 1494 1494 1494 1494 1495 1495 1495 1496 1496 1497 1497 1498 1498 1499
1459 1450 1451 1454 1460 1464 1462 1477 1469 1466 1469 1471 1474 1477 1480 1483 1485 1487 1489 1491 1492 1492 1491 1492 1492 1492 1492 1492 1492 1493 1493 1493 1493 1494 1493 1493 1492 1492 1492 1492 1492 1493 1493 1494 1494 1495 1496 1496 1496
1451 1445 1447 1450 1455 1460 1459 1471 1473 1467 1473 1471 1472 1475 1478 1480 1483 1486 1487 1489 1490 1490 1490 1490 1490 1491 1490 1490 1491 1491 1491 1492 1492 1492 1491 1491 1491 1490 1490 1490 1490 1490 1491 1491 1492 1492 1493 1493 1493
1443 1444 1445 1446 1452 1469 1462 1470 1476 1468 1469 1470 1471 1473 1477 1479 1482 1484 1485 1487 1488 1488 1489 1490 1489 1489 1489 1489 1489 1490 1490 1490 1490 1490 1489 1489 1489 1488 1488 1488 1488 1488 1489 1489 1490 1490 1491 1491 1491
1445 1455 1467 1471 1474 1472 1457 1465 1473 1461 1463 1467 1470 1472 1476 1478 1480 1483 1485 1486 1487 1488 1488 1488 1488 1488 1488 1488 1488 1488 1488 1488 1488 1488 1488 1488 1487 1487 1486 1486 1486 1486 1487 1487 1488 1488 1488 1488 1489
1448 1455 1473 1486 1481 1469 1459 1466 1464 1458 1462 1466 1469 1471 1475 1478 1479 1482 1485 1486 1487 1487 1487 1487 1486 1487 1487 1487 1487 1487 1487 1487 1487 1486 1486 1486 1486 1485 1485 1484 1484 1485 1485 1485 1486 1486 1486 1486 1486
1450 1451 1449 1462 1465 1469 1467 1467 1463 1461 1463 1466 1469 1471 1474 1478 1479 1482 1484 1485 1486 1486 1486 1486 1486 1485 1485 1485 1485 1486 1486 1486 1486 1485 1485 1485 1484 1484 1483 1483 1482 1482 1483 1483 1483 1483 1483 1483 1483
1443 1446 1453 1463 1475 1478 1471 1470 1473 1467 1467 1467 1468 1471 1473 1477 1480 1482 1484 1484 1485 1486 1486 1486 1485 1484 1484 1484 1484 1485 1484 1484 1484 1484 1483 1483 1483 1482 1482 1481 1481 1481 1481 1481 1481 1481 1481 1480 1480
1446 1448 1451 1456 1458 1472 1479 1479 1461 1464 1465 1466 1467 1470 1473 1476 1479 1481 1482 1483 1484 1485 1485 1485 1484 1483 1483 1483 1483 1483 1483 1483 1483 1482 1482 1482 1481 1481 1481 1480 1480 1479 1479 1479 1479 1479 1479 1478 1478
1442 1446 1451 1467 1468 1463 1471 1479 1461 1462 1464 1465 1467 1470 1473 1476 1479 1480 1482 1482 1483 1484 1484 1484 1483 1483 1483 1482 1482 1482 1482 1481 1481 1481 1481 1481 1480 1480 1479 1479 1479 1478 1478 1478 1478 1478 1477 1477 1477